(482810) = 2013 WK26

Discovered at Kitt Peak on 2013-10-05 by Spacewatch.

Orbit

Orbit type: Main Belt

Note: WebGL enabled browser required.

epoch2022-01-21.0
epoch JD2459600.5
perihelion date2019-03-02.53407
perihelion JD2458545.03407
argument of perihelion (°)332.08807
ascending node (°)54.78573
inclination (°)16.98188
eccentricity0.0882841
perihelion distance (AU)2.8831011
Tisserand w.r.t. Jupiter3.1
ΔV w.r.t. Earth (km/sec)11.8
semimajor axis (AU)3.1622803
mean anomaly (°)184.98969
mean daily motion (°/day)0.17526830
aphelion distance (AU)3.441
period (years)5.62
P-vector [x]0.87532843
P-vector [y]0.47990986
P-vector [z]0.05904800
Q-vector [x]-0.42054744
Q-vector [y]0.69535009
Q-vector [z]0.58277620
absolute magnitude16.2
phase slope0.15
uncertainty0
referenceMPO 700599
observations used89
oppositions8
arc length (days)3983
first opposition used2011
last opposition used2022
residual rms (arc-secs)0.54
perturbers coarse indicatorM-v
perturbers precise indicator003Ek
first observation date used2011-06-08.0
last observation date used2022-05-04.0
computer namePan
Minimum Orbit Intersection Distances (in AU)
for orbit epoch: 2458200.5, reference: MPO393115
Mercury2.5517
Venus2.16578
Earth1.90205
Mars1.42638
Jupiter1.98929
Saturn6.13616
Uranus14.8841
Neptune26.8377

Observations

103 total observations over interval: 2011 06 08.23698 – 2022 06 02.308248
These data are available for download (format description).

Date (UT) J2000 RA J2000 Dec Magn Location Ref
2011 06 08.23698 15 50 07.44 -24 42 07.5 20.8 V G96 – Mt. Lemmon Survey MPS 753838
2011 06 08.25556 15 50 06.43 -24 42 08.4 20.2 V G96 – Mt. Lemmon Survey MPS 753838
2011 06 08.26485 15 50 05.96 -24 42 08.4 20.4 V G96 – Mt. Lemmon Survey MPS 753838
2013 10 05.40353 03 52 02.49 +15 46 32.3 20.8 V 691 – Steward Observatory, Kitt Peak-Spacewatch MPS 492123
2013 10 05.42124 03 52 02.08 +15 46 35.2 20.6 V 691 – Steward Observatory, Kitt Peak-Spacewatch MPS 492123
2013 10 05.43895 03 52 01.76 +15 46 38.0 20.6 V 691 – Steward Observatory, Kitt Peak-Spacewatch MPS 492123
2013 10 09.41133 03 50 36.58 +15 57 30.2 21.2 V 691 – Steward Observatory, Kitt Peak-Spacewatch MPS 492123
2013 10 09.42923 03 50 36.13 +15 57 32.4 20.8 V 691 – Steward Observatory, Kitt Peak-Spacewatch MPS 492123
2013 10 09.44713 03 50 35.64 +15 57 35.3 20.9 V 691 – Steward Observatory, Kitt Peak-Spacewatch MPS 492123
2013 11 01.54455 03 35 02.615 +16 53 14.85 20.4 g F51 – Pan-STARRS 1, Haleakala MPS 492123
2013 11 01.55677 03 35 01.947 +16 53 16.36 20.5 g F51 – Pan-STARRS 1, Haleakala MPS 492123
2013 11 01.56906 03 35 01.271 +16 53 17.83 20.0 r F51 – Pan-STARRS 1, Haleakala MPS 492123
2013 11 01.58055 03 35 00.635 +16 53 19.19 20.2 r F51 – Pan-STARRS 1, Haleakala MPS 492123
2013 11 02.22264 03 34 26.39 +16 54 40.5 20.4 V 691 – Steward Observatory, Kitt Peak-Spacewatch MPS 492123
2013 11 02.24040 03 34 25.41 +16 54 42.8 20.5 V 691 – Steward Observatory, Kitt Peak-Spacewatch MPS 492123
2013 11 02.25814 03 34 24.42 +16 54 45.1 20.3 V 691 – Steward Observatory, Kitt Peak-Spacewatch MPS 492123
2013 11 09.36035 03 27 43.69 +17 09 19.5 19.9 V G96 – Mt. Lemmon Survey MPS 492123
2013 11 09.36937 03 27 43.14 +17 09 20.4 19.9 V G96 – Mt. Lemmon Survey MPS 492123
2013 11 09.37662 03 27 42.69 +17 09 21.3 20.2 V G96 – Mt. Lemmon Survey MPS 492123
2013 11 09.38390 03 27 42.27 +17 09 22.3 20.0 V G96 – Mt. Lemmon Survey MPS 492123
2013 11 25.64680 03 11 55.35 +17 40 31.1 21.1 R D29 – Purple Mountain Observatory, XuYi Station MPS 490056
2013 11 25.66271 03 11 54.44 +17 40 32.9 19.9 R D29 – Purple Mountain Observatory, XuYi Station MPS 490056
2013 11 25.67861 03 11 53.49 +17 40 34.2 20.1 R D29 – Purple Mountain Observatory, XuYi Station MPS 490056
2013 11 29.16341 03 08 44.37 +17 47 16.8 19.9 V G96 – Mt. Lemmon Survey MPS 490056
2013 11 29.17021 03 08 44.01 +17 47 17.4 20.2 V G96 – Mt. Lemmon Survey MPS 490056
2013 11 29.17700 03 08 43.64 +17 47 18.2 20.1 V G96 – Mt. Lemmon Survey MPS 490056
2013 11 29.18942 03 08 43.00 +17 47 20.0 19.8 V G96 – Mt. Lemmon Survey MPS 490056
2015 01 14.52291 10 04 24.110 +36 20 12.30 21.2 i F51 – Pan-STARRS 1, Haleakala MPS 674107
2015 01 14.53537 10 04 23.654 +36 20 17.57 21.3 i F51 – Pan-STARRS 1, Haleakala MPS 674107
2015 01 14.54784 10 04 23.204 +36 20 23.61 21.7 i F51 – Pan-STARRS 1, Haleakala MPS 674107
2015 01 14.56031 10 04 22.752 +36 20 29.33 21.6 i F51 – Pan-STARRS 1, Haleakala MPS 674107
2015 01 27.42157 09 55 11.442 +37 52 02.35 20.9 i F51 – Pan-STARRS 1, Haleakala MPS 674107
2015 01 27.43404 09 55 10.808 +37 52 07.11 20.8 i F51 – Pan-STARRS 1, Haleakala MPS 674107
2015 01 27.45903 09 55 09.493 +37 52 17.19 21.2 i F51 – Pan-STARRS 1, Haleakala MPS 674107
2015 03 20.30671 09 14 08.584 +38 48 44.06 21.5 w F51 – Pan-STARRS 1, Haleakala MPS 753838
2015 03 20.31888 09 14 08.297 +38 48 41.16 21.6 w F51 – Pan-STARRS 1, Haleakala MPS 753838
2015 03 20.33107 09 14 08.021 +38 48 38.10 21.4 w F51 – Pan-STARRS 1, Haleakala MPS 753838
2016 04 01.46581 13 58 15.730 +01 41 16.89 21.1 r F51 – Pan-STARRS 1, Haleakala MPS 753838
2016 04 01.47759 13 58 15.197 +01 41 18.59 21.1 r F51 – Pan-STARRS 1, Haleakala MPS 753838
2016 04 01.48944 13 58 14.661 +01 41 20.12 20.8 r F51 – Pan-STARRS 1, Haleakala MPS 753838
2016 04 01.50130 13 58 14.135 +01 41 21.79 21.0 r F51 – Pan-STARRS 1, Haleakala MPS 753838
2016 04 05.52962 13 55 11.284 +01 50 12.08 20.9 w F51 – Pan-STARRS 1, Haleakala MPS 698835
2016 04 05.54086 13 55 10.750 +01 50 13.44 21.0 w F51 – Pan-STARRS 1, Haleakala MPS 698835
2016 04 05.55199 13 55 10.218 +01 50 14.89 20.9 w F51 – Pan-STARRS 1, Haleakala MPS 698835
2016 04 05.56315 13 55 09.684 +01 50 16.35 21.0 w F51 – Pan-STARRS 1, Haleakala MPS 698835
2016 04 15.26800 13 47 21.22 +02 07 33.6 20.6 V G96 – Mt. Lemmon Survey MPS 703774
2016 04 15.27425 13 47 20.92 +02 07 34.6 20.7 V G96 – Mt. Lemmon Survey MPS 703774
2016 04 15.28051 13 47 20.61 +02 07 35.5 21.1 V G96 – Mt. Lemmon Survey MPS 703774
2016 04 15.28677 13 47 20.29 +02 07 35.7 20.7 V G96 – Mt. Lemmon Survey MPS 703774
2018 09 18.34662 00 12 35.20 -23 16 46.5 20.3 G G96 – Mt. Lemmon Survey MPS 921821
2018 09 18.35197 00 12 34.88 -23 16 47.1 20.6 G G96 – Mt. Lemmon Survey MPS 921821
2018 09 18.35941 00 12 34.50 -23 16 48.0 20.5 G G96 – Mt. Lemmon Survey MPS 921821
2018 09 18.36475 00 12 34.19 -23 16 49.0 20.4 G G96 – Mt. Lemmon Survey MPS 921821
2018 10 10.34360 23 53 57.402 -23 17 27.82 20.7 w F52 – Pan-STARRS 2, Haleakala MPS 927291
2018 10 10.37889 23 53 55.754 -23 17 22.49 20.6 w F52 – Pan-STARRS 2, Haleakala MPS 927291
2020 01 03.24650 05 18 48.41 +36 56 19.1 20.7 G G96 – Mt. Lemmon Survey MPS 1122895
2020 01 03.25178 05 18 48.14 +36 56 19.3 20.6 G G96 – Mt. Lemmon Survey MPS 1122895
2020 01 03.25705 05 18 47.80 +36 56 20.0 20.3 G G96 – Mt. Lemmon Survey MPS 1122895
2020 01 03.26227 05 18 47.52 +36 56 20.2 20.8 G G96 – Mt. Lemmon Survey MPS 1122895
2021 02 12.417163 11 51 35.482 +25 34 30.81 21.39 w F52 – Pan-STARRS 2, Haleakala MPS 1371869
2021 02 12.429449 11 51 35.031 +25 34 35.31 21.30 w F52 – Pan-STARRS 2, Haleakala MPS 1371869
2021 02 12.441712 11 51 34.585 +25 34 40.16 21.40 w F52 – Pan-STARRS 2, Haleakala MPS 1371869
2021 02 12.453958 11 51 34.128 +25 34 44.53 21.20 w F52 – Pan-STARRS 2, Haleakala MPS 1371869
2021 02 18.414576 11 47 47.56 +26 10 13.7 22.10 G G96 – Mt. Lemmon Survey MPS 1371869
2021 02 18.419682 11 47 47.32 +26 10 15.9 21.19 G G96 – Mt. Lemmon Survey MPS 1371869
2021 02 18.424793 11 47 47.12 +26 10 18.0 20.99 G G96 – Mt. Lemmon Survey MPS 1371869
2021 02 18.429907 11 47 46.86 +26 10 22.4   G96 – Mt. Lemmon Survey MPS 1410685
2021 04 02.256825 11 13 42.73 +27 52 49.8 22.46 G G96 – Mt. Lemmon Survey MPS 1400449
2021 04 02.261948 11 13 42.47 +27 52 49.2 21.84 G G96 – Mt. Lemmon Survey MPS 1400449
2021 04 02.267070 11 13 42.27 +27 52 49.1 21.57 G G96 – Mt. Lemmon Survey MPS 1400449
2021 04 02.272195 11 13 42.04 +27 52 48.5 21.47 G G96 – Mt. Lemmon Survey MPS 1400449
2021 04 02.289406 11 13 41.502 +27 52 46.94 21.25 w F51 – Pan-STARRS 1, Haleakala MPS 1400449
2021 04 02.300370 11 13 41.048 +27 52 45.85 21.26 w F51 – Pan-STARRS 1, Haleakala MPS 1400449
2021 04 02.311318 11 13 40.605 +27 52 44.68 21.35 w F51 – Pan-STARRS 1, Haleakala MPS 1400449
2021 04 18.238593 11 05 21.54 +27 00 34.7 22.35 G G96 – Mt. Lemmon Survey MPS 1400449
2021 04 18.244320 11 05 21.42 +27 00 32.8 22.26 G G96 – Mt. Lemmon Survey MPS 1400449
2021 04 18.250059 11 05 21.26 +27 00 31.6 22.02 G G96 – Mt. Lemmon Survey MPS 1400449
2021 04 18.255814 11 05 21.12 +27 00 29.4 22.52 G G96 – Mt. Lemmon Survey MPS 1400449
2022 04 08.511374 15 25 23.874 -13 46 55.11 21.12 w F52 – Pan-STARRS 2, Haleakala MPS 1587815
2022 04 08.522321 15 25 23.491 -13 46 55.28 21.01 w F52 – Pan-STARRS 2, Haleakala MPS 1587815
2022 04 08.533220 15 25 23.140 -13 46 55.77 20.93 w F52 – Pan-STARRS 2, Haleakala MPS 1587815
2022 04 25.375011 15 13 51.848 -13 51 51.62 21.02 G G96 – Mt. Lemmon Survey MPS 1591772
2022 04 25.380105 15 13 51.532 -13 51 50.40 20.75 G G96 – Mt. Lemmon Survey MPS 1591772
2022 04 25.385191 15 13 51.269 -13 51 50.00 20.95 G G96 – Mt. Lemmon Survey MPS 1591772
2022 04 25.390295 15 13 51.082 -13 51 50.36 20.24 G G96 – Mt. Lemmon Survey MPS 1591772
2022 05 04.338393 15 06 22.756 -13 52 48.00 20.54 G G96 – Mt. Lemmon Survey MPS 1596253
2022 05 04.343586 15 06 22.511 -13 52 47.75 20.56 G G96 – Mt. Lemmon Survey MPS 1596253
2022 05 04.348773 15 06 22.266 -13 52 47.50 20.11 G G96 – Mt. Lemmon Survey MPS 1596253
2022 05 04.353938 15 06 21.967 -13 52 48.07 20.50 G G96 – Mt. Lemmon Survey MPS 1596253
2022 05 21.346291 14 51 48.570 -13 56 34.77 20.93 w F52 – Pan-STARRS 2, Haleakala MPS 1618336
2022 05 21.367948 14 51 47.486 -13 56 35.32 20.92 w F52 – Pan-STARRS 2, Haleakala MPS 1618336
2022 05 21.378841 14 51 46.937 -13 56 35.71 20.89 w F52 – Pan-STARRS 2, Haleakala MPS 1618336
2022 05 28.167429 14 46 28.211 -14 00 22.28 20.91 G G96 – Mt. Lemmon Survey MPS 1618336
2022 05 28.173100 14 46 27.912 -14 00 23.11 21.60 G G96 – Mt. Lemmon Survey MPS 1618336
2022 05 28.186798 14 46 27.300 -14 00 24.48 20.62 G G96 – Mt. Lemmon Survey MPS 1618336
2022 05 28.192454 14 46 27.052 -14 00 23.54 21.37 G G96 – Mt. Lemmon Survey MPS 1618336
2022 06 01.280324 14 43 31.512 -14 03 40.00 21.62 G G96 – Mt. Lemmon Survey MPS 1618336
2022 06 01.285494 14 43 31.249 -14 03 39.35 21.37 G G96 – Mt. Lemmon Survey MPS 1618336
2022 06 01.290677 14 43 30.990 -14 03 40.36 21.10 G G96 – Mt. Lemmon Survey MPS 1618336
2022 06 01.295855 14 43 30.796 -14 03 40.64 21.23 G G96 – Mt. Lemmon Survey MPS 1618336
2022 06 02.286414 14 42 50.652 -14 04 35.60 21.09 w F52 – Pan-STARRS 2, Haleakala MPS 1618336
2022 06 02.297350 14 42 50.191 -14 04 36.34 21.35 w F52 – Pan-STARRS 2, Haleakala MPS 1618336
2022 06 02.308248 14 42 49.744 -14 04 36.88 21.20 w F52 – Pan-STARRS 2, Haleakala MPS 1618336